TimeCDT,TemperatureF,Dew PointF,Humidity,Sea Level PressureIn,VisibilityMPH,Wind Direction,Wind SpeedMPH,Gust SpeedMPH,PrecipitationIn,Events,Conditions,WindDirDegrees,DateUTC
12:53 AM,55.9,41.0,57,29.88,10.0,South,8.1,-,N/A,,Clear,180,2013-03-10 06:53:00
1:53 AM,57.0,42.1,57,29.86,10.0,South,12.7,-,N/A,,Clear,180,2013-03-10 07:53:00
3:53 AM,57.9,46.0,65,29.83,10.0,South,12.7,-,N/A,,Clear,170,2013-03-10 08:53:00
4:53 AM,59.0,50.0,72,29.82,10.0,South,16.1,-,N/A,,Clear,180,2013-03-10 09:53:00
5:53 AM,59.0,51.1,75,29.81,10.0,South,17.3,23.0,N/A,,Partly Cloudy,170,2013-03-10 10:53:00
6:53 AM,59.0,50.0,72,29.81,9.0,South,20.7,27.6,N/A,,Scattered Clouds,170,2013-03-10 11:53:00
7:53 AM,60.1,52.0,75,29.78,9.0,SSE,19.6,-,N/A,,Mostly Cloudy,160,2013-03-10 12:53:00
8:26 AM,60.8,51.8,72,29.78,10.0,South,19.6,-,N/A,,Mostly Cloudy,170,2013-03-10 13:26:00
8:36 AM,60.8,51.8,72,29.77,10.0,SSE,19.6,27.6,N/A,,Overcast,160,2013-03-10 13:36:00
8:53 AM,61.0,53.1,75,29.77,10.0,SSE,21.9,28.8,N/A,,Overcast,160,2013-03-10 13:53:00
9:53 AM,60.1,54.0,80,29.79,7.0,South,20.7,33.4,0.01,Rain,Light Rain,170,2013-03-10 14:53:00
10:25 AM,60.8,55.4,82,29.76,9.0,SSE,16.1,25.3,0.00,,Overcast,160,2013-03-10 15:25:00
10:53 AM,62.1,55.9,80,29.75,10.0,South,19.6,34.5,0.00,,Overcast,180,2013-03-10 15:53:00
11:53 AM,63.0,55.9,78,29.74,10.0,South,25.3,34.5,N/A,,Overcast,170,2013-03-10 16:53:00
12:11 PM,62.6,57.2,82,29.74,4.0,South,21.9,34.5,0.03,Rain,Light Rain,170,2013-03-10 17:11:00
12:45 PM,62.6,57.2,82,29.75,4.0,South,13.8,29.9,0.10,Rain,Light Rain,180,2013-03-10 17:45:00
12:49 PM,60.8,57.2,88,29.76,1.8,West,26.5,44.9,0.16,Rain,Heavy Rain,260,2013-03-10 17:49:00
12:53 PM,55.9,53.1,90,29.78,1.0,NW,24.2,44.9,0.23,Rain,Heavy Rain,310,2013-03-10 17:53:00
12:58 PM,53.6,50.0,88,29.78,1.2,NW,20.7,44.9,0.01,Rain,Rain,310,2013-03-10 17:58:00
1:02 PM,53.6,50.0,88,29.78,3.0,NW,23.0,32.2,0.02,Rain,Light Rain,310,2013-03-10 18:02:00
1:10 PM,53.6,50.0,88,29.79,9.0,NW,18.4,28.8,0.02,Rain,Light Rain,310,2013-03-10 18:10:00
1:53 PM,53.1,50.0,89,29.76,10.0,NNW,9.2,-,0.04,,Overcast,330,2013-03-10 18:53:00
2:27 PM,53.6,51.8,94,29.80,2.5,WNW,6.9,-,0.06,Rain,Light Rain,300,2013-03-10 19:27:00
2:34 PM,53.6,51.8,94,29.79,6.0,Calm,Calm,-,0.06,Rain,Light Rain,0,2013-03-10 19:34:00
2:53 PM,54.0,51.1,90,29.79,8.0,Calm,Calm,-,0.07,Rain,Light Rain,0,2013-03-10 19:53:00
3:53 PM,54.0,52.0,93,29.77,10.0,ESE,8.1,-,0.03,Rain,Light Rain,110,2013-03-10 20:53:00
4:23 PM,53.6,51.8,94,29.75,10.0,ESE,6.9,-,0.02,Rain,Light Rain,110,2013-03-10 21:23:00
4:53 PM,54.0,52.0,93,29.78,10.0,SSE,6.9,-,0.02,,Overcast,160,2013-03-10 21:53:00
5:13 PM,53.6,53.6,100,29.78,10.0,South,5.8,-,0.01,Rain,Light Rain,170,2013-03-10 22:13:00
5:53 PM,55.0,53.1,93,29.76,10.0,South,5.8,-,0.01,,Overcast,190,2013-03-10 22:53:00
6:02 PM,55.4,53.6,94,29.77,10.0,South,6.9,-,N/A,,Overcast,180,2013-03-10 23:02:00
6:13 PM,53.6,51.8,94,29.77,10.0,South,5.8,-,N/A,,Overcast,180,2013-03-10 23:13:00
6:31 PM,53.6,51.8,94,29.78,10.0,SSE,8.1,-,N/A,,Overcast,160,2013-03-10 23:31:00
6:53 PM,54.0,52.0,93,29.78,10.0,South,8.1,-,N/A,,Mostly Cloudy,170,2013-03-10 23:53:00
7:19 PM,53.6,51.8,94,29.78,10.0,SSE,8.1,-,N/A,,Mostly Cloudy,160,2013-03-11 00:19:00
7:53 PM,54.0,52.0,93,29.78,10.0,South,8.1,-,N/A,,Overcast,170,2013-03-11 00:53:00
8:11 PM,53.6,51.8,94,29.79,10.0,South,8.1,-,N/A,,Overcast,170,2013-03-11 01:11:00
8:53 PM,53.1,52.0,96,29.79,10.0,South,9.2,-,N/A,,Overcast,180,2013-03-11 01:53:00
9:09 PM,53.6,51.8,94,29.79,10.0,South,8.1,-,N/A,,Overcast,180,2013-03-11 02:09:00
9:17 PM,53.6,51.8,94,29.79,10.0,South,11.5,-,N/A,,Overcast,180,2013-03-11 02:17:00
9:35 PM,53.6,50.0,88,29.80,10.0,WSW,16.1,-,N/A,,Overcast,240,2013-03-11 02:35:00
9:44 PM,53.6,48.2,82,29.80,10.0,WSW,11.5,-,N/A,,Overcast,240,2013-03-11 02:44:00
9:53 PM,54.0,48.0,80,29.81,10.0,WSW,11.5,-,N/A,,Overcast,240,2013-03-11 02:53:00
10:30 PM,51.8,46.4,82,29.83,10.0,West,10.4,-,N/A,,Overcast,280,2013-03-11 03:30:00
10:53 PM,52.0,46.0,80,29.83,10.0,WNW,6.9,-,N/A,,Overcast,300,2013-03-11 03:53:00
11:53 PM,48.9,39.0,69,29.84,10.0,WNW,12.7,-,N/A,,Overcast,290,2013-03-11 04:53:00
12:41 AM,48.2,39.2,71,29.85,10.0,West,5.8,-,N/A,,Overcast,280,2013-03-11 05:41:00
12:53 AM,48.0,39.0,71,29.85,10.0,West,11.5,-,N/A,,Overcast,280,2013-03-11 05:53:00